MESAT1

Last updated on Fri Jul 11 2025 00:03:04 GMT+0000 (Coordinated Universal Time)

1 60209U 24125G 25191.57253157 .00009882 00000+0 27353-3 0 9993 2 60209 97.2761 42.8582 0018937 31.4770 328.7604 15.37009834 56719
UTC large
Height (km)
Speed (km/s)
/
Latitude / Longitude
Inclination (degrees)
Orbital Period (minutes)
Azimuth
Elevation
Range (km)
Doppler Factor

Next 0 passes for location: London (51.5072 / 0.1276)

Sorry there are no passes over London.